CW5404 Weather Reports


time (UTC)temp
C
wind
direction
speed
KPH
gust
KPH
rain 1hr
cm
rain 24hr
cm
rain mn
cm
humidity
%
barometer
mb
20260507070400 10 236 0.0 0.0 0.00 0.00 0.00 88 1020.7
20260507065930 10 236 0.0 0.0 0.00 0.00 0.00 88 1020.7
20260507065431 10 236 0.0 0.0 0.00 0.00 0.00 88 1020.7
20260507064430 10 236 0.0 0.0 0.00 0.00 0.00 87 1020.7
20260507063931 10 235 0.0 0.0 0.00 0.00 0.00 87 1020.7
20260507063430 10 235 0.0 0.0 0.00 0.00 0.00 87 1020.7
20260507062900 10 235 0.0 0.0 0.00 0.00 0.00 86 1020.7
20260507062400 10 235 0.0 0.0 0.00 0.00 0.00 86 1020.7
20260507061931 10 235 0.0 0.0 0.00 0.00 0.00 86 1020.7
20260507061400 10 235 0.0 0.0 0.00 0.00 0.00 85 1020.7
20260507060400 10 235 0.0 0.0 0.00 0.00 0.00 84 1020.7
20260507055900 10 235 0.0 1.6 0.00 0.00 0.00 84 1020.7
20260507055430 11 235 0.0 1.6 0.00 0.00 0.00 83 1020.6
20260507054900 11 234 1.6 1.6 0.00 0.00 0.00 83 1020.6
20260507054430 11 234 0.0 0.0 0.00 0.00 0.00 83 1020.6
20260507053930 11 235 0.0 0.0 0.00 0.00 0.00 83 1020.6
20260507053400 11 360 0.0 0.0 0.00 0.00 0.00 82 1020.6
20260507052930 11 360 0.0 0.0 0.00 0.00 0.00 82 1020.6
20260507052430 11 360 0.0 0.0 0.00 0.00 0.00 82 1020.5
20260507051400 11 360 0.0 0.0 0.00 0.00 0.00 82 1020.5
20260507050900 11 235 0.0 3.2 0.00 0.00 0.00 82 1020.4
20260507045900 11 360 0.0 3.2 0.00 0.00 0.00 82 1020.4
20260507044930 11 360 0.0 1.6 0.00 0.00 0.00 82 1020.3
20260507043930 12 360 0.0 4.8 0.00 0.00 0.00 81 1020.3
20260507043400 12 360 0.0 4.8 0.00 0.00 0.00 81 1020.3
20260507042430 12 360 0.0 1.6 0.00 0.00 0.00 81 1020.2
20260507041930 12 360 0.0 1.6 0.00 0.00 0.00 80 1020.2
20260507041430 12 360 0.0 1.6 0.00 0.00 0.00 80 1020.2
20260507040930 12 360 0.0 1.6 0.00 0.00 0.00 80 1019.9
20260507040430 12 360 0.0 0.0 0.00 0.00 0.00 79 1019.9
20260507035930 12 360 0.0 0.0 0.00 0.00 0.00 79 1019.9
20260507035400 12 360 0.0 1.6 0.00 0.00 0.00 79 1019.8
20260507034900 12 360 0.0 1.6 0.00 0.00 0.00 78 1019.8
20260507034430 12 360 0.0 1.6 0.00 0.00 0.00 78 1019.8
20260507033900 13 360 0.0 0.0 0.00 0.00 0.00 78 1019.7
20260507032930 13 250 0.0 3.2 0.00 0.00 0.00 77 1019.7
20260507032430 13 250 0.0 3.2 0.00 0.00 0.00 77 1019.6
20260507031930 13 73 0.0 0.0 0.00 0.00 0.00 77 1019.6
20260507031430 13 71 0.0 0.0 0.00 0.00 0.00 76 1019.6
20260507030930 13 71 0.0 1.6 0.00 0.00 0.00 76 1019.5
20260507030400 13 70 0.0 1.6 0.00 0.00 0.00 76 1019.5
20260507025900 14 223 0.0 0.0 0.00 0.00 0.00 75 1019.5
20260507024930 14 223 0.0 0.0 0.00 0.00 0.00 74 1019.3
20260507024430 15 223 0.0 1.6 0.00 0.00 0.00 74 1019.3
20260507023900 15 223 0.0 1.6 0.00 0.00 0.00 73 1019.3
20260507022929 15 223 0.0 1.6 0.00 0.00 0.00 72 1019.3
20260507022400 15 298 0.0 1.6 0.00 0.00 0.00 72 1019.3
20260507021929 15 355 0.0 1.6 0.00 0.00 0.00 72 1019.3
20260507021430 16 320 0.0 3.2 0.00 0.00 0.00 71 1019.3
20260507020859 16 320 0.0 3.2 0.00 0.00 0.00 71 1019.3
20260507020359 16 119 0.0 4.8 0.00 0.00 0.00 70 1019.3
20260507015930 16 119 0.0 4.8 0.00 0.00 0.00 69 1019.3
20260507015359 16 98 0.0 3.2 0.00 0.00 0.00 69 1019.3
20260507014859 16 84 0.0 3.2 0.00 0.00 0.00 68 1019.3
20260507013859 17 125 0.0 4.8 0.00 0.00 0.00 68 1019.3
20260507013430 17 122 0.0 4.8 0.00 0.00 0.00 67 1019.3
20260507012930 17 127 1.6 8.0 0.00 0.00 0.00 67 1019.3
20260507012430 17 72 4.8 8.0 0.00 0.00 0.00 66 1019.2
20260507011859 17 102 1.6 4.8 0.00 0.00 0.00 66 1019.2
20260507011400 17 100 0.0 4.8 0.00 0.00 0.00 66 1019.2
20260507010859 18 114 1.6 3.2 0.00 0.00 0.00 65 1019.4
20260507010359 18 256 3.2 4.8 0.00 0.00 0.00 65 1019.4
20260507005929 18 298 0.0 4.8 0.00 0.00 0.00 63 1019.4
20260507005359 18 206 0.0 6.4 0.00 0.00 0.00 63 1019.3
20260507004930 18 328 0.0 6.4 0.00 0.00 0.00 63 1019.3
20260507004429 18 51 1.6 11.3 0.00 0.00 0.00 63 1019.3
20260507003929 18 332 3.2 11.3 0.00 0.00 0.00 63 1019.3
20260507003359 19 253 0.0 6.4 0.00 0.00 0.00 61 1019.3
20260507002429 20 33 1.6 4.8 0.00 0.00 0.00 61 1019.3
20260507001929 20 153 0.0 3.2 0.00 0.00 0.00 61 1019.3
20260507001429 20 155 0.0 4.8 0.00 0.00 0.00 60 1019.3
20260507000859 20 69 3.2 8.0 0.00 0.00 0.00 61 1019.3
20260507000429 20 71 4.8 8.0 0.00 0.00 0.00 62 1019.3
20260506235929 20 51 0.0 4.8 0.00 0.00 0.00 62 1019.3
20260506235429 20 49 1.6 4.8 0.00 0.00 0.00 62 1019.2
20260506234929 20 89 0.0 4.8 0.00 0.00 0.00 60 1019.2
20260506234429 20 42 0.0 11.3 0.00 0.00 0.00 61 1019.2
20260506233929 20 53 3.2 11.3 0.00 0.00 0.00 59 1019.2
20260506233429 20 61 0.0 6.4 0.00 0.00 0.00 59 1019.2
20260506232429 20 126 0.0 4.8 0.00 0.00 0.00 60 1019.3
20260506231929 20 263 1.6 11.3 0.00 0.00 0.00 60 1019.3
20260506231430 20 242 0.0 11.3 0.00 0.00 0.00 59 1019.3
20260506230929 20 20 1.6 9.7 0.00 0.00 0.00 61 1019.3
20260506230429 20 294 3.2 11.3 0.00 0.00 0.00 61 1019.3
20260506225929 20 59 0.0 11.3 0.00 0.00 0.00 62 1019.3
20260506225429 20 69 11.3 11.3 0.00 0.00 0.00 60 1019.4
20260506224428 20 153 1.6 11.3 0.00 0.00 0.00 61 1019.4
20260506223858 20 34 1.6 11.3 0.00 0.00 0.00 60 1019.5
20260506223428 20 26 0.0 8.0 0.00 0.00 0.00 65 1019.5
20260506222428 20 98 1.6 12.9 0.00 0.00 0.00 63 1019.7
20260506221928 20 46 4.8 9.7 0.00 0.00 0.00 63 1019.7
20260506221429 20 360 1.6 8.0 0.00 0.00 0.00 61 1019.7
20260506220928 20 61 1.6 8.0 0.00 0.00 0.00 61 1019.7
20260506220428 20 50 0.0 8.0 0.00 0.00 0.00 65 1019.7
20260506215928 20 28 4.8 8.0 0.00 0.00 0.00 61 1019.7
20260506215358 20 53 3.2 8.0 0.00 0.00 0.00 64 1019.7
20260506213858 20 55 3.2 11.3 0.00 0.00 0.00 63 1019.8
20260506213428 20 126 0.0 9.7 0.00 0.00 0.00 64 1019.8
20260506212928 20 207 8.0 9.7 0.00 0.00 0.00 63 1019.8
20260506211428 20 97 3.2 8.0 0.00 0.00 0.00 64 1019.8
20260506210928 20 111 6.4 8.0 0.00 0.00 0.00 64 1019.9
20260506210358 20 107 3.2 6.4 0.00 0.00 0.00 65 1019.9
20260506205928 19 236 0.0 8.0 0.00 0.00 0.00 69 1019.9
20260506205428 18 171 1.6 9.7 0.00 0.00 0.00 65 1020.0
20260506204928 19 40 1.6 12.9 0.00 0.00 0.00 65 1020.0
20260506204428 19 93 8.0 12.9 0.00 0.00 0.00 65 1020.0
20260506203928 19 32 0.0 6.4 0.00 0.00 0.00 68 1020.1
20260506203428 18 76 0.0 6.4 0.00 0.00 0.00 68 1020.1
20260506202928 18 264 0.0 8.0 0.00 0.00 0.00 67 1020.1
20260506202428 18 234 3.2 8.0 0.00 0.00 0.00 66 1020.2
20260506201927 18 46 0.0 6.4 0.00 0.00 0.00 66 1020.2
20260506201427 18 38 1.6 6.4 0.00 0.00 0.00 65 1020.2
20260506200927 18 340 0.0 6.4 0.00 0.00 0.00 66 1020.2
20260506200428 18 80 0.0 9.7 0.00 0.00 0.00 65 1020.2
20260506195928 18 109 3.2 9.7 0.00 0.00 0.00 65 1020.2
20260506194427 19 215 4.8 4.8 0.00 0.00 0.00 64 1020.2
20260506193357 18 217 3.2 9.7 0.00 0.00 0.00 65 1020.3
20260506192927 18 223 1.6 8.0 0.00 0.00 0.00 65 1020.3
20260506192428 18 213 4.8 8.0 0.00 0.00 0.00 65 1020.3
20260506191427 18 11 0.0 9.7 0.00 0.00 0.00 71 1020.3
20260506190927 17 220 6.4 9.7 0.00 0.00 0.00 69 1020.2
20260506190428 17 215 3.2 9.7 0.00 0.00 0.00 69 1020.2
20260506185428 17 355 3.2 9.7 0.00 0.00 0.00 71 1020.3
20260506184928 17 176 8.0 9.7 0.00 0.00 0.00 70 1020.3
20260506184427 17 223 1.6 8.0 0.00 0.00 0.00 71 1020.3
20260506183927 17 319 3.2 11.3 0.00 0.00 0.00 72 1020.4
20260506182928 17 210 4.8 11.3 0.00 0.00 0.00 72 1020.4
20260506182358 17 207 3.2 11.3 0.00 0.00 0.00 69 1020.4
20260506181927 17 171 1.6 8.0 0.00 0.00 0.00 71 1020.4
20260506181427 17 286 3.2 4.8 0.00 0.00 0.00 72 1020.4
20260506180428 16 194 1.6 6.4 0.00 0.00 0.00 73 1020.3
20260506175928 16 61 0.0 8.0 0.00 0.00 0.00 73 1020.3
20260506175428 16 55 3.2 8.0 0.00 0.00 0.00 72 1020.3
20260506174927 16 107 0.0 6.4 0.00 0.00 0.00 72 1020.3
20260506174428 16 107 0.0 8.0 0.00 0.00 0.00 72 1020.3
20260506173927 16 163 4.8 8.0 0.00 0.00 0.00 73 1020.1
20260506173427 16 163 1.6 9.7 0.00 0.00 0.00 74 1020.1
20260506172928 16 178 3.2 9.7 0.00 0.00 0.00 75 1020.1
20260506172428 16 217 0.0 8.0 0.00 0.00 0.00 75 1020.5
20260506171927 15 257 1.6 8.0 0.00 0.00 0.00 75 1020.4
20260506170927 15 257 0.0 6.4 0.00 0.00 0.00 75 1020.3
20260506170427 15 215 0.0 6.4 0.00 0.00 0.00 76 1020.3
20260506165427 15 203 4.8 8.0 0.00 0.00 0.00 79 1020.4
20260506164927 15 202 4.8 6.4 0.00 0.00 0.00 78 1020.4
20260506164427 15 213 0.0 6.4 0.00 0.00 0.00 82 1020.4
20260506163927 14 232 3.2 4.8 0.00 0.00 0.00 84 1020.6
20260506163427 14 207 0.0 4.8 0.00 0.00 0.00 85 1020.6
20260506162927 13 202 0.0 3.2 0.00 0.00 0.00 86 1020.6
20260506162427 13 169 0.0 3.2 0.00 0.00 0.00 87 1020.4
20260506161927 13 101 0.0 3.2 0.00 0.00 0.00 89 1020.4
20260506161427 13 189 0.0 3.2 0.00 0.00 0.00 91 1020.4
20260506160927 12 136 0.0 3.2 0.00 0.00 0.00 92 1020.2
20260506155857 12 360 0.0 3.2 0.00 0.00 0.00 94 1020.2
20260506155427 12 360 0.0 6.4 0.00 0.00 0.00 95 1019.8
20260506154926 12 360 3.2 6.4 0.00 0.00 0.00 94 1019.8
20260506154426 12 360 1.6 6.4 0.00 0.00 0.00 95 1019.8
20260506153927 12 360 1.6 4.8 0.00 0.00 0.00 95 1020.3
20260506153427 12 360 0.0 0.0 0.00 0.00 0.00 94 1020.3
20260506152926 12 360 0.0 0.0 0.00 0.00 0.00 94 1020.3
20260506152426 12 360 0.0 1.6 0.00 0.00 0.00 93 1020.4
20260506151927 12 360 0.0 3.2 0.00 0.00 0.00 93 1020.4
20260506150926 12 360 0.0 0.0 0.00 0.00 0.00 93 1020.4
20260506150427 12 360 0.0 0.0 0.00 0.00 0.00 92 1020.4
20260506144857 12 360 0.0 0.0 0.00 0.00 0.00 93 1020.6
20260506144426 12 360 0.0 0.0 0.00 0.00 0.00 93 1020.6
20260506143426 11 360 0.0 0.0 0.00 0.00 0.00 93 1020.0
20260506142927 11 360 0.0 0.0 0.00 0.00 0.00 93 1020.0
20260506142428 11 360 0.0 1.6 0.00 0.00 0.00 93 1019.8
20260506141927 11 360 0.0 1.6 0.00 0.00 0.00 93 1019.8
20260506140927 11 360 0.0 3.2 0.00 0.00 0.00 94 1019.5
20260506135857 11 360 0.0 1.6 0.00 0.00 0.00 94 1019.5
20260506134927 11 360 1.6 1.6 0.00 0.00 0.00 95 1019.4
20260506133926 11 360 0.0 0.0 0.00 0.00 0.00 95 1019.4
20260506131426 11 360 0.0 0.0 0.00 0.00 0.00 96 1019.4
20260506130926 11 154 0.0 0.0 0.00 0.00 0.00 96 1019.2
20260506125926 11 360 0.0 0.0 0.00 0.00 0.00 96 1019.2
20260506125426 11 360 0.0 0.0 0.00 0.00 0.00 96 1019.1
20260506124856 11 360 0.0 0.0 0.00 0.00 0.00 96 1019.1
20260506124426 11 142 0.0 0.0 0.00 0.00 0.00 96 1019.1
20260506123926 11 142 0.0 0.0 0.00 0.00 0.00 96 1019.2
20260506123426 11 142 0.0 0.0 0.00 0.00 0.00 95 1019.2
20260506122856 11 142 0.0 0.0 0.00 0.00 0.00 95 1019.2
20260506122356 11 142 0.0 0.0 0.00 0.00 0.00 95 1019.2
20260506121426 11 142 0.0 0.0 0.00 0.00 0.00 96 1019.2
20260506120426 11 138 0.0 0.0 0.00 0.00 0.00 96 1019.0
20260506115926 11 138 0.0 0.0 0.00 0.00 0.00 96 1019.0
20260506115426 11 139 0.0 0.0 0.00 0.00 0.00 96 1018.9
20260506114926 11 360 0.0 0.0 0.00 0.00 0.00 96 1018.9
20260506113856 11 360 0.0 0.0 0.00 0.00 0.00 95 1018.8
20260506113426 11 360 0.0 0.0 0.00 0.00 0.00 95 1018.8
20260506112855 11 139 0.0 0.0 0.00 0.00 0.00 95 1018.8
20260506112425 11 139 0.0 0.0 0.00 0.00 0.00 95 1018.6
20260506111925 11 360 0.0 0.0 0.00 0.00 0.00 95 1018.6
20260506111425 11 360 0.0 0.0 0.00 0.00 0.00 95 1018.6
20260506110856 11 360 0.0 0.0 0.00 0.00 0.00 95 1018.4
20260506110356 11 360 0.0 0.0 0.00 0.00 0.00 95 1018.4
20260506105925 11 139 0.0 0.0 0.00 0.00 0.00 95 1018.4
20260506105427 11 360 0.0 0.0 0.00 0.00 0.00 95 1018.2
20260506104426 11 360 0.0 0.0 0.00 0.00 0.00 95 1018.2
20260506103926 11 360 0.0 0.0 0.00 0.00 0.00 95 1018.0
20260506102925 10 138 0.0 0.0 0.00 0.00 0.00 95 1018.0
20260506101925 10 360 0.0 0.0 0.00 0.00 0.00 95 1017.8
20260506101425 10 136 0.0 0.0 0.00 0.00 0.00 95 1017.8
20260506100925 10 360 0.0 0.0 0.00 0.00 0.00 94 1017.7
20260506100425 10 360 0.0 0.0 0.00 0.00 0.00 94 1017.7
20260506095925 10 360 0.0 0.0 0.00 0.00 0.00 94 1017.7
20260506095425 10 360 0.0 0.0 0.00 0.00 0.00 94 1017.6
20260506094925 10 360 0.0 0.0 0.00 0.00 0.00 94 1017.6
20260506094425 10 134 0.0 0.0 0.00 0.00 0.00 94 1017.6
20260506093925 11 135 0.0 0.0 0.00 0.00 0.00 94 1017.4
20260506093425 11 360 0.0 0.0 0.00 0.00 0.00 94 1017.4
20260506092925 10 360 0.0 0.0 0.00 0.00 0.00 93 1017.4
20260506091925 10 360 0.0 0.0 0.00 0.00 0.00 93 1017.3
20260506091425 10 360 0.0 0.0 0.00 0.00 0.00 93 1017.3
20260506090925 11 360 0.0 0.0 0.00 0.00 0.00 92 1017.3
20260506090425 11 360 0.0 0.0 0.00 0.00 0.00 92 1017.3
20260506085925 11 360 0.0 0.0 0.00 0.00 0.00 92 1017.3
20260506084425 11 360 0.0 0.0 0.00 0.00 0.00 91 1017.2
20260506083925 11 360 0.0 0.0 0.00 0.00 0.00 91 1017.2
20260506083424 11 360 0.0 0.0 0.00 0.00 0.00 90 1017.2
20260506081925 11 360 0.0 0.0 0.00 0.00 0.00 89 1017.1
20260506081425 11 360 0.0 0.0 0.00 0.00 0.00 89 1017.1
20260506080924 11 360 0.0 0.0 0.00 0.00 0.00 89 1017.1
20260506080425 11 360 0.0 0.0 0.00 0.00 0.00 88 1017.1
20260506072924 12 360 0.0 0.0 0.00 0.00 0.00 88 1017.1
20260506072424 12 360 0.0 0.0 0.00 0.00 0.00 87 1017.0
20260506071924 12 360 0.0 0.0 0.00 0.00 0.00 87 1017.0
20260506071424 12 360 0.0 0.0 0.00 0.00 0.00 87 1017.0
20260506070924 12 360 0.0 0.0 0.00 0.00 0.00 86 1016.8